Change the Weather History Date:

Monday, June 24, 2013

  Actual Average (KFSM) Record (KFSM)
Temperature  
Mean Temperature 84 °F 80 °F  
Max Temperature 91 °F 90 °F 103 °F (1953)
Min Temperature 77 °F 70 °F 53 °F (1974)
Cooling Degree Days 19 15  
Month to date cooling degree days 293  
Year to date cooling degree days 537  
Since 1 June cooling degree days 293  
Growing Degree Days 34 (Base 50)    
Moisture  
Dew Point 74 °F    
Average Humidity 73    
Maximum Humidity 89    
Minimum Humidity 52    
Precipitation  
Precipitation 0.00 in 0.13 in 1.41 in (1976)
Month to date precipitation 3.50  
Year to date precipitation 22.69  
Sea Level Pressure  
Sea Level Pressure 30.00 in    
Wind  
Wind Speed 4 mph (South)    
Max Wind Speed 14 mph    
Max Gust Speed 17 mph    
Visibility 10 miles    
Events      
T = Trace of Precipitation, MM = Missing Value Source: NWS Daily Summary

Daily Weather History Graph

Daily Weather History Graph

Search for Another Location

Airport or City:

Trip Planner

Search our weather history database for the weather conditions in past years. The results will help you decide how hot, cold, wet, or windy it might be!

Date:

Astronomy

Jun. 24, 2013 Rise Set
Actual Time 6:05 AM CDT 8:36 PM CDT
Civil Twilight 5:35 AM CDT 9:06 PM CDT
Nautical Twilight 4:59 AM CDT 9:42 PM CDT
Astronomical Twilight 4:18 AM CDT 10:23 PM CDT
Moon 9:44 PM CDT (6/24) 7:30 AM CDT (6/24)
Length of Visible Light 15h 30m
Length of Day
14h 30m
Full, 98% of the Moon is Illuminated
Jun 24
Full
Jun 29
Last Quarter
Jul 8
New
Jul 15
First Quarter
Jul 22
Full

Hourly Weather History & Observations

Time (CDT) Temp. Heat Index Dew Point Humidity Pressure Visibility Wind Dir Wind Speed Gust Speed Precip Events Conditions
12:15 AM 77.0 °F - 73.4 °F 89% 29.99 in 10.0 mi Calm Calm - N/A   Clear
12:35 AM 77.0 °F - 73.4 °F 89% 29.99 in 10.0 mi Calm Calm - N/A   Clear
12:55 AM 77.0 °F - 73.4 °F 89% 30.00 in 10.0 mi Calm Calm - N/A   Clear
1:15 AM 77.0 °F - 71.6 °F 83% 30.00 in 10.0 mi Calm Calm - N/A   Clear
1:35 AM 77.0 °F - 73.4 °F 89% 30.00 in 10.0 mi Calm Calm - N/A   Clear
1:55 AM 77.0 °F - 73.4 °F 89% 30.00 in 10.0 mi Calm Calm - N/A   Clear
2:15 AM 77.0 °F - 73.4 °F 89% 30.01 in 10.0 mi Calm Calm - N/A   Clear
2:35 AM 77.0 °F - 73.4 °F 89% 30.01 in 10.0 mi Calm Calm - N/A   Clear
2:55 AM 77.0 °F - 73.4 °F 89% 30.01 in 10.0 mi Calm Calm - N/A   Clear
3:15 AM 77.0 °F - 73.4 °F 89% 30.00 in 10.0 mi South 3.5 mph - N/A   Clear
3:35 AM 77.0 °F - 71.6 °F 83% 30.01 in 10.0 mi Calm Calm - N/A   Clear
3:55 AM 78.8 °F - 73.4 °F 83% 30.01 in 10.0 mi Calm Calm - N/A   Clear
4:15 AM 78.8 °F - 73.4 °F 83% 30.01 in 10.0 mi Calm Calm - N/A   Clear
4:35 AM 77.0 °F - 71.6 °F 83% 30.01 in 10.0 mi SSW 3.5 mph - N/A   Clear
4:55 AM 77.0 °F - 73.4 °F 89% 30.01 in 10.0 mi SSW 4.6 mph - N/A   Clear
5:15 AM 77.0 °F - 73.4 °F 89% 30.01 in 10.0 mi SSW 4.6 mph - N/A   Clear
5:35 AM 77.0 °F - 71.6 °F 83% 30.01 in 10.0 mi Calm Calm - N/A   Clear
5:55 AM 77.0 °F - 73.4 °F 89% 30.02 in 10.0 mi Calm Calm - N/A   Clear
6:15 AM 77.0 °F - 73.4 °F 89% 30.02 in 10.0 mi Calm Calm - N/A   Clear
6:35 AM 77.0 °F - 73.4 °F 89% 30.03 in 10.0 mi Calm Calm - N/A   Clear
6:55 AM 77.0 °F - 73.4 °F 89% 30.03 in 10.0 mi Calm Calm - N/A   Clear
7:15 AM 77.0 °F - 73.4 °F 89% 30.03 in 10.0 mi Calm Calm - N/A   Clear
7:35 AM 78.8 °F - 73.4 °F 83% 30.04 in 10.0 mi South 4.6 mph - N/A   Clear
7:55 AM 78.8 °F - 73.4 °F 83% 30.04 in 10.0 mi South 5.8 mph - N/A   Clear
8:15 AM 80.6 °F 86.2 °F 75.2 °F 84% 30.04 in 10.0 mi South 8.1 mph - N/A   Clear
8:35 AM 80.6 °F 86.2 °F 75.2 °F 84% 30.05 in 10.0 mi South 9.2 mph - N/A   Clear
8:55 AM 82.4 °F 89.5 °F 75.2 °F 79% 30.06 in 10.0 mi South 9.2 mph - N/A   Clear
9:15 AM 82.4 °F 89.5 °F 75.2 °F 79% 30.06 in 10.0 mi South 13.8 mph 17.3 mph N/A   Scattered Clouds
9:35 AM 82.4 °F 89.5 °F 75.2 °F 79% 30.06 in 10.0 mi South 10.4 mph 17.3 mph N/A   Scattered Clouds
9:55 AM 84.2 °F 92.3 °F 75.2 °F 74% 30.06 in 10.0 mi South 8.1 mph - N/A   Clear
10:15 AM 84.2 °F 92.3 °F 75.2 °F 74% 30.06 in 10.0 mi South 10.4 mph 17.3 mph N/A   Scattered Clouds
10:35 AM 86.0 °F 93.4 °F 73.4 °F 66% 30.06 in 10.0 mi South 9.2 mph - N/A   Scattered Clouds
10:55 AM 86.0 °F 93.4 °F 73.4 °F 66% 30.06 in 10.0 mi South 11.5 mph - N/A   Clear
11:15 AM 87.8 °F 99.7 °F 77.0 °F 70% 30.06 in 10.0 mi South 10.4 mph - N/A   Clear
11:35 AM 89.6 °F 98.2 °F 73.4 °F 59% 30.06 in 10.0 mi South 6.9 mph - N/A   Scattered Clouds
11:55 AM 91.4 °F 102.5 °F 75.2 °F 59% 30.06 in 10.0 mi South 11.5 mph - N/A   Scattered Clouds
12:15 PM 91.4 °F 102.5 °F 75.2 °F 59% 30.05 in 10.0 mi South 9.2 mph - N/A   Clear
12:35 PM 91.4 °F 100.1 °F 73.4 °F 55% 30.04 in 10.0 mi South 13.8 mph 17.3 mph N/A   Clear
12:55 PM 91.4 °F 100.1 °F 73.4 °F 55% 30.03 in 10.0 mi South 9.2 mph - N/A   Clear
1:15 PM 91.4 °F 100.1 °F 73.4 °F 55% 30.03 in 10.0 mi South 10.4 mph - N/A   Clear
1:35 PM 91.4 °F 100.1 °F 73.4 °F 55% 30.02 in 10.0 mi SSE 6.9 mph - N/A   Scattered Clouds
1:55 PM 91.4 °F 100.1 °F 73.4 °F 55% 30.01 in 10.0 mi South 9.2 mph 17.3 mph N/A   Clear
2:15 PM 91.4 °F 100.1 °F 73.4 °F 55% 30.01 in 10.0 mi South 11.5 mph 17.3 mph N/A   Clear
2:35 PM 91.4 °F 100.1 °F 73.4 °F 55% 30.00 in 10.0 mi South 10.4 mph - N/A   Scattered Clouds
2:55 PM 91.4 °F 100.1 °F 73.4 °F 55% 30.00 in 10.0 mi SSE 9.2 mph - N/A   Scattered Clouds
3:15 PM 91.4 °F 100.1 °F 73.4 °F 55% 29.99 in 10.0 mi SSE 8.1 mph 16.1 mph N/A   Scattered Clouds
3:35 PM 91.4 °F 100.1 °F 73.4 °F 55% 29.98 in 10.0 mi South 9.2 mph - N/A   Scattered Clouds
3:55 PM 91.4 °F 100.1 °F 73.4 °F 55% 29.97 in 10.0 mi South 9.2 mph - N/A   Scattered Clouds
4:15 PM 91.4 °F 100.1 °F 73.4 °F 55% 29.97 in 10.0 mi SSE 10.4 mph - N/A   Scattered Clouds
4:35 PM 91.4 °F 100.1 °F 73.4 °F 55% 29.97 in 10.0 mi South 10.4 mph - N/A   Clear
4:55 PM 91.4 °F 100.1 °F 73.4 °F 55% 29.96 in 10.0 mi South 11.5 mph - N/A   Clear
5:15 PM 91.4 °F 98.4 °F 71.6 °F 52% 29.96 in 7.0 mi South 10.4 mph 17.3 mph N/A   Clear
5:35 PM 91.4 °F 98.4 °F 71.6 °F 52% 29.96 in 10.0 mi South 9.2 mph 16.1 mph N/A   Clear
5:55 PM 91.4 °F 100.1 °F 73.4 °F 55% 29.96 in 10.0 mi South 6.9 mph - N/A   Clear
6:15 PM 91.4 °F 100.1 °F 73.4 °F 55% 29.96 in 10.0 mi South 8.1 mph - N/A   Scattered Clouds
6:35 PM 91.4 °F 102.5 °F 75.2 °F 59% 29.95 in 10.0 mi SSE 5.8 mph - N/A   Clear
6:55 PM 89.6 °F 99.8 °F 75.2 °F 62% 29.96 in 7.0 mi SSE 5.8 mph - N/A   Clear
7:15 PM 89.6 °F 99.8 °F 75.2 °F 62% 29.95 in 7.0 mi SE 3.5 mph - N/A   Clear
7:35 PM 86.0 °F 93.4 °F 73.4 °F 66% 29.95 in 10.0 mi SE 3.5 mph - N/A   Clear
7:55 PM 86.0 °F 93.4 °F 73.4 °F 66% 29.96 in 10.0 mi Calm Calm - N/A   Clear
8:15 PM 84.2 °F 90.9 °F 73.4 °F 70% 29.96 in 10.0 mi SE 3.5 mph - N/A   Clear
8:35 PM 82.4 °F 88.2 °F 73.4 °F 74% 29.96 in 10.0 mi Calm Calm - N/A   Clear
8:55 PM 82.4 °F 88.2 °F 73.4 °F 74% 29.96 in 10.0 mi Calm Calm - N/A   Clear
9:15 PM 82.4 °F 88.2 °F 73.4 °F 74% 29.96 in 10.0 mi Calm Calm - N/A   Clear
9:35 PM 80.6 °F 85.4 °F 73.4 °F 79% 29.96 in 10.0 mi Calm Calm - N/A   Clear
9:55 PM 80.6 °F 85.4 °F 73.4 °F 79% 29.97 in 10.0 mi Calm Calm - N/A   Clear
10:15 PM 78.8 °F - 73.4 °F 83% 29.98 in 10.0 mi Calm Calm - N/A   Clear
10:35 PM 78.8 °F - 73.4 °F 83% 29.98 in 10.0 mi Calm Calm - N/A   Clear
10:55 PM 78.8 °F - 73.4 °F 83% 29.99 in 10.0 mi Calm Calm - N/A   Clear
11:15 PM 77.0 °F - 73.4 °F 89% 29.99 in 10.0 mi North 3.5 mph - N/A   Clear
11:35 PM 77.0 °F - 73.4 °F 89% 29.99 in 10.0 mi Calm Calm - N/A   Clear
11:55 PM 78.8 °F - 73.4 °F 83% 29.99 in 10.0 mi Calm Calm - N/A   Clear